Location: Oshawa
(43.9000°N, 78.8670°W)
Time: 23:59:31
(UTC-04:00)

PAYLOAD A - Visible Passes

Search period start: 19 September 2017 00:00
Search period end: 29 September 2017 00:00
Orbit: 692 x 832 km, 98.2° (Epoch: 19 September)

Date Brightness Start Highest point End Pass type
(mag) Time Alt. Az. Time Alt. Az. Time Alt. Az.
19 Sep 6.3 05:56:36 10° NE 06:00:46 27° E 06:04:48 10° SSE visible
20 Sep 7.2 05:21:00 10° ENE 05:22:39 12° E 05:24:16 10° ESE visible
21 Sep 5.2 06:19:50 10° NNE 06:24:33 44° E 06:29:06 10° S visible
22 Sep 6.7 05:43:03 10° NE 05:46:36 20° E 05:50:02 10° SE visible
24 Sep 5.8 06:06:03 10° NNE 06:10:26 33° E 06:14:40 10° SSE visible
25 Sep 6.9 05:29:47 10° NE 05:32:23 14° E 05:34:57 10° ESE visible
26 Sep 4.7 06:29:24 10° NNE 06:34:11 55° E 06:38:47 10° S visible
26 Sep 7.8 19:26:52 10° WSW 19:29:09 13° W 19:31:25 10° WNW visible
27 Sep 6.4 05:52:23 10° NE 05:56:16 24° E 06:00:05 10° SSE visible
28 Sep 7.4 05:17:49 10° E 05:18:09 10° E 05:18:29 10° E visible
